sat.trackr.live / text

‹ back to catalog

STARLINK-1892

NORAD 46743 · 2020-074E

PAYLOAD ACTIVE UNKNOWN

§ Identity

Operator
Country
US
Launch date
2020-10-24
Launch site
AFETR
Launch vehicle
Mass (kg)
RCS (m²)

Purposes: comms

External: N2YO · Heavens-Above · Gunter

§ Orbital elements

Epoch: 2026-08-26T08:45:24.965856Z

Period
87.90 min
Inclination
53.0168°
Eccentricity
0.0007577
Mean motion
16.38250305 rev/d
Perigee alt
165.5 km
Apogee alt
175.4 km
Semi-major
6,548.6 km
B*
7.2062e-4
RAAN
171.1297°
Arg perigee
242.8020°
Mean anomaly
117.2253°
Rev number
32,377

§ Raw data

STARLINK-18921 46743U 20074E   26238.36487229  .08110531  12259-4  72062-3 0  99912 46743  53.0168 171.1297 0007577 242.8020 117.2253 16.38250305323777

JSON: /api/v1/satellites/46743 · /tle

For live sub-satellite position, see the globe view (requires WebGL).

§ Visibility from observer

Set your observer location to see the next 7 days of passes ≥ 10°. The values pass through the URL so the page stays shareable.

No JS? Fill the form by hand. The geolocation button needs JavaScript.